| time (UTC) | temp F | wind direction | speed knots | gust knots | rain 1hr in | rain 24hr in | rain mn in | humidity % | barometer mb |
| 20260903201515 | 92 | 0.0 | 3.5 | 0.00 | 0.00 | 0.00 | 67 | 1015.0 | |
| 20260903200016 | 92 | 0.0 | 1.7 | 0.00 | 0.00 | 0.00 | 66 | 1015.2 | |
| 20260903194516 | 92 | 0.0 | 1.7 | 0.00 | 0.00 | 0.00 | 67 | 1015.4 | |
| 20260903193016 | 92 | 338 | 0.9 | 2.6 | 0.00 | 0.00 | 0.00 | 67 | 1015.6 |
| 20260903191536 | 91 | 315 | 0.9 | 2.6 | 0.00 | 0.00 | 0.00 | 69 | 1015.7 |
| 20260903190016 | 91 | 180 | 0.9 | 2.6 | 0.00 | 0.00 | 0.00 | 69 | 1016.0 |
| 20260903184515 | 90 | 293 | 0.9 | 2.6 | 0.00 | 0.00 | 0.00 | 69 | 1016.2 |
| 20260903183116 | 89 | 68 | 0.9 | 1.7 | 0.00 | 0.00 | 0.00 | 69 | 1016.3 |
| 20260903181515 | 89 | 338 | 0.9 | 2.6 | 0.00 | 0.00 | 0.00 | 72 | 1016.5 |
| 20260903180015 | 88 | 135 | 0.9 | 4.3 | 0.00 | 0.00 | 0.00 | 71 | 1016.8 |
| 20260903174515 | 88 | 0.0 | 1.7 | 0.00 | 0.00 | 0.00 | 73 | 1017.0 | |
| 20260903173015 | 88 | 315 | 0.9 | 2.6 | 0.00 | 0.00 | 0.00 | 73 | 1016.9 |
| 20260903171515 | 87 | 293 | 0.9 | 2.6 | 0.00 | 0.00 | 0.00 | 74 | 1017.1 |
| 20260903170015 | 87 | 293 | 0.9 | 3.5 | 0.00 | 0.00 | 0.00 | 73 | 1017.4 |
| 20260903164515 | 87 | 270 | 0.9 | 3.5 | 0.00 | 0.00 | 0.00 | 72 | 1017.5 |
| 20260903163015 | 87 | 270 | 0.9 | 3.5 | 0.00 | 0.00 | 0.00 | 73 | 1017.6 |
| 20260903161517 | 87 | 270 | 0.9 | 1.7 | 0.00 | 0.00 | 0.00 | 73 | 1017.8 |
| 20260903160017 | 87 | 0.0 | 2.6 | 0.00 | 0.00 | 0.00 | 76 | 1017.9 | |
| 20260903154537 | 86 | 293 | 0.9 | 1.7 | 0.00 | 0.00 | 0.00 | 77 | 1017.9 |
| 20260903153037 | 85 | 293 | 0.9 | 5.2 | 0.00 | 0.00 | 0.00 | 77 | 1017.8 |
| 20260903151517 | 85 | 315 | 0.9 | 2.6 | 0.00 | 0.00 | 0.00 | 79 | 1018.0 |
| 20260903150017 | 84 | 45 | 0.9 | 2.6 | 0.00 | 0.00 | 0.00 | 80 | 1017.7 |
| 20260903144537 | 83 | 135 | 0.9 | 2.6 | 0.00 | 0.00 | 0.00 | 83 | 1017.7 |
| 20260903143017 | 82 | 113 | 0.9 | 2.6 | 0.00 | 0.00 | 0.00 | 85 | 1017.6 |
| 20260903141537 | 81 | 45 | 0.9 | 2.6 | 0.00 | 0.00 | 0.00 | 87 | 1017.6 |
| 20260903140017 | 79 | 270 | 0.9 | 5.2 | 0.00 | 0.00 | 0.00 | 92 | 1017.4 |
| 20260903134517 | 78 | 0.0 | 2.6 | 0.00 | 0.00 | 0.00 | 95 | 1017.1 | |
| 20260903133017 | 77 | 0.0 | 0.9 | 0.00 | 0.00 | 0.00 | 96 | 1017.2 | |
| 20260903131537 | 76 | 0.0 | 1.7 | 0.00 | 0.00 | 0.00 | 96 | 1017.4 | |
| 20260903130017 | 76 | 0.0 | 0.0 | 0.00 | 0.00 | 0.00 | 96 | 1017.5 | |
| 20260903124517 | 75 | 0.0 | 0.0 | 0.00 | 0.00 | 0.00 | 96 | 1017.7 | |
| 20260903123016 | 75 | 0.0 | 0.0 | 0.00 | 0.00 | 0.00 | 95 | 1017.7 | |
| 20260903121517 | 74 | 0.0 | 0.0 | 0.00 | 0.00 | 0.00 | 95 | 1017.7 | |
| 20260903120017 | 74 | 0.0 | 0.0 | 0.00 | 0.00 | 0.00 | 95 | 1017.7 | |
| 20260903114516 | 73 | 0.0 | 0.0 | 0.00 | 0.00 | 0.00 | 94 | 1017.5 | |
| 20260903113016 | 73 | 0.0 | 0.0 | 0.00 | 0.00 | 0.00 | 94 | 1017.3 | |
| 20260903111516 | 73 | 0.0 | 0.0 | 0.00 | 0.00 | 0.00 | 94 | 1017.2 | |
| 20260903110017 | 73 | 0.0 | 0.0 | 0.00 | 0.00 | 0.00 | 94 | 1017.1 | |
| 20260903104536 | 73 | 0.0 | 0.0 | 0.00 | 0.00 | 0.00 | 94 | 1017.0 | |
| 20260903103016 | 74 | 0.0 | 0.0 | 0.00 | 0.00 | 0.00 | 94 | 1016.9 | |
| 20260903101516 | 74 | 0.0 | 0.0 | 0.00 | 0.00 | 0.00 | 94 | 1016.8 | |
| 20260903100016 | 74 | 0.0 | 0.0 | 0.00 | 0.00 | 0.00 | 94 | 1017.1 | |
| 20260903094516 | 74 | 0.0 | 0.0 | 0.00 | 0.00 | 0.00 | 94 | 1017.0 | |
| 20260903093016 | 74 | 0.0 | 0.0 | 0.00 | 0.00 | 0.00 | 94 | 1017.0 | |
| 20260903091516 | 74 | 0.0 | 0.0 | 0.00 | 0.00 | 0.00 | 94 | 1017.0 | |
| 20260903090016 | 74 | 0.0 | 0.0 | 0.00 | 0.00 | 0.00 | 93 | 1016.8 | |
| 20260903084516 | 74 | 0.0 | 0.0 | 0.00 | 0.00 | 0.00 | 93 | 1016.4 | |
| 20260903083016 | 74 | 0.0 | 0.0 | 0.00 | 0.00 | 0.00 | 93 | 1016.4 | |
| 20260903081516 | 74 | 0.0 | 0.0 | 0.00 | 0.00 | 0.00 | 93 | 1016.4 | |
| 20260903080016 | 75 | 0.0 | 0.0 | 0.00 | 0.00 | 0.00 | 93 | 1016.6 | |
| 20260903074516 | 75 | 0.0 | 0.0 | 0.00 | 0.00 | 0.00 | 93 | 1016.9 | |
| 20260903073016 | 75 | 0.0 | 0.0 | 0.00 | 0.00 | 0.00 | 93 | 1016.9 | |
| 20260903071516 | 75 | 0.0 | 0.0 | 0.00 | 0.00 | 0.00 | 93 | 1016.9 | |
| 20260903070016 | 75 | 0.0 | 0.0 | 0.00 | 0.00 | 0.00 | 93 | 1016.9 | |
| 20260903064516 | 76 | 0.0 | 0.0 | 0.00 | 0.00 | 0.00 | 93 | 1017.0 | |
| 20260903063016 | 76 | 0.0 | 0.0 | 0.00 | 0.00 | 0.00 | 93 | 1017.2 | |
| 20260903061516 | 76 | 0.0 | 0.0 | 0.00 | 0.00 | 0.00 | 93 | 1017.2 | |
| 20260903060016 | 76 | 0.0 | 0.0 | 0.00 | 0.00 | 0.00 | 93 | 1017.1 | |
| 20260903054516 | 76 | 0.0 | 0.0 | 0.00 | 0.00 | 0.00 | 93 | 1017.2 | |
| 20260903053016 | 76 | 0.0 | 0.0 | 0.00 | 0.00 | 0.00 | 94 | 1017.3 | |
| 20260903051516 | 77 | 0.0 | 0.0 | 0.00 | 0.00 | 0.00 | 94 | 1017.6 | |
| 20260903050016 | 77 | 0.0 | 0.0 | 0.00 | 0.00 | 0.00 | 94 | 1017.9 | |
| 20260903044516 | 76 | 0.0 | 0.0 | 0.00 | 0.00 | 0.00 | 93 | 1018.1 | |
| 20260903043016 | 76 | 0.0 | 0.0 | 0.00 | 0.00 | 0.00 | 93 | 1017.9 | |
| 20260903041516 | 76 | 0.0 | 0.0 | 0.00 | 0.00 | 0.00 | 92 | 1017.5 | |
| 20260903040035 | 77 | 0.0 | 0.0 | 0.00 | 0.00 | 0.00 | 91 | 1017.2 | |
| 20260903034516 | 77 | 0.0 | 0.0 | 0.00 | 0.00 | 0.00 | 90 | 1017.0 | |
| 20260903033016 | 77 | 0.0 | 0.0 | 0.00 | 0.00 | 0.00 | 90 | 1017.0 | |
| 20260903031516 | 77 | 0.0 | 0.0 | 0.00 | 0.00 | 0.00 | 90 | 1016.7 | |
| 20260903030016 | 78 | 0.0 | 0.0 | 0.00 | 0.00 | 0.00 | 89 | 1016.7 | |
| 20260903024516 | 78 | 0.0 | 0.0 | 0.00 | 0.00 | 0.00 | 89 | 1017.0 | |
| 20260903023036 | 78 | 0.0 | 0.0 | 0.00 | 0.00 | 0.00 | 88 | 1017.1 | |
| 20260903021516 | 79 | 0.0 | 0.0 | 0.00 | 0.00 | 0.00 | 88 | 1017.2 | |
| 20260903020016 | 79 | 0.0 | 0.0 | 0.00 | 0.00 | 0.00 | 88 | 1017.6 | |
| 20260903014516 | 80 | 0.0 | 0.0 | 0.00 | 0.00 | 0.00 | 87 | 1017.7 | |
| 20260903013016 | 80 | 0.0 | 0.0 | 0.00 | 0.00 | 0.00 | 87 | 1017.4 | |
| 20260903011516 | 80 | 0.0 | 0.0 | 0.00 | 0.00 | 0.00 | 85 | 1017.4 | |
| 20260903010016 | 81 | 0.0 | 0.0 | 0.00 | 0.00 | 0.00 | 84 | 1017.5 | |
| 20260903004516 | 81 | 0.0 | 0.0 | 0.00 | 0.00 | 0.00 | 84 | 1017.6 | |
| 20260903003016 | 82 | 0.0 | 0.0 | 0.00 | 0.00 | 0.00 | 83 | 1017.2 | |
| 20260903001536 | 82 | 0.0 | 0.0 | 0.00 | 0.00 | 0.00 | 82 | 1017.1 | |
| 20260903000016 | 83 | 0.0 | 0.0 | 0.00 | 0.00 | 0.00 | 81 | 1017.1 | |
| 20260902234516 | 83 | 0.0 | 1.7 | 0.00 | 0.00 | 0.00 | 81 | 1017.0 | |
| 20260902233016 | 83 | 0.0 | 1.7 | 0.00 | 0.00 | 0.00 | 81 | 1017.0 | |
| 20260902231516 | 83 | 180 | 0.9 | 1.7 | 0.00 | 0.00 | 0.00 | 80 | 1017.5 |
| 20260902230016 | 84 | 180 | 0.9 | 2.6 | 0.00 | 0.00 | 0.00 | 80 | 1017.6 |
| 20260902224516 | 84 | 0.0 | 2.6 | 0.00 | 0.00 | 0.00 | 80 | 1017.4 | |
| 20260902223036 | 85 | 203 | 0.9 | 2.6 | 0.00 | 0.00 | 0.00 | 79 | 1017.8 |
| 20260902221516 | 85 | 0.0 | 2.6 | 0.00 | 0.00 | 0.00 | 77 | 1018.0 | |
| 20260902220016 | 86 | 0.0 | 1.7 | 0.00 | 0.00 | 0.00 | 75 | 1017.6 | |
| 20260902214536 | 86 | 203 | 0.9 | 3.5 | 0.00 | 0.00 | 0.00 | 73 | 1017.1 |
| 20260902213016 | 87 | 180 | 0.9 | 3.5 | 0.00 | 0.00 | 0.00 | 74 | 1017.5 |
| 20260902211516 | 87 | 180 | 0.9 | 5.2 | 0.00 | 0.00 | 0.00 | 71 | 1017.7 |
| 20260902210015 | 88 | 180 | 0.9 | 3.5 | 0.00 | 0.00 | 0.00 | 70 | 1017.6 |
| 20260902204515 | 89 | 135 | 0.9 | 3.5 | 0.00 | 0.00 | 0.00 | 71 | 1017.5 |